{"data":{"norad_id":48471,"epoch":"2026-09-20T00:00:18.475776Z","epoch_age_seconds":80469,"freshness":"FRESH","line1":"1 48471U 21040AV  26263.00021384  .00010885  00000+0  36202-3 0  9995","line2":"2 48471  53.1602   6.7662 0000838  86.2972 273.8125 15.31699553296274","mean_motion":15.31699553,"eccentricity":8.38e-5,"inclination_deg":53.1602,"raan_deg":6.7662,"arg_perigee_deg":86.2972,"mean_anomaly_deg":273.8125,"bstar":0.00036202,"rev_number":29627,"period_min":94.01321539721,"perigee_km":470.16739170585,"apogee_km":471.31526371357,"semimajor_km":6848.8783277097,"source":"CELESTRAK","updated_at":"2026-09-20T09:00:39.129590Z"}}